This is the latest recevied weather packets stored in our database for station/object N0LTM. If no packets are shown the sender has not sent any weather packets the latest 10 day(s).
| Time | Temp. | Humidity | Pressure | Rain* | Wind** | Luminosity | Snow |
|---|---|---|---|---|---|---|---|
| 1777819252 | 11.67° C | 54% | 1013.2 hPa | 0 mm | - | - | - |
| 1777816855 | 11.11° C | 58% | 1013.4 hPa | 0 mm | - | - | - |
| 1777816552 | 11.11° C | 58% | 1013.5 hPa | 0 mm | - | - | - |
| 1777816256 | 10.56° C | 58% | 1013.5 hPa | 0 mm | - | - | - |
| 1777815353 | 10° C | 59% | 1013.8 hPa | 0 mm | - | - | - |
| 1777813259 | 8.89° C | 60% | 1013.8 hPa | 0 mm | - | - | - |
| 1777809655 | 7.78° C | 63% | 1013.8 hPa | 0 mm | - | - | - |
| 1777809356 | 7.22° C | 64% | 1013.8 hPa | 0 mm | - | - | - |
| 1777808153 | 7.22° C | 63% | 1013.7 hPa | 0 mm | - | - | - |
| 1777807856 | 7.22° C | 63% | 1013.6 hPa | 0 mm | - | - | - |
| 1777806956 | 7.22° C | 61% | 1013.4 hPa | 0 mm | - | - | - |
| 1777805756 | 7.22° C | 61% | 1013.4 hPa | 0 mm | - | - | - |
| 1777805453 | 7.22° C | 61% | 1013.4 hPa | 0 mm | - | - | - |
| 1777801564 | 7.22° C | 58% | 1013.7 hPa | 0 mm | - | - | - |
| 1777800659 | 6.67° C | 58% | 1013.8 hPa | 0 mm | - | - | - |
| 1777799453 | 6.67° C | 58% | 1013.9 hPa | 0 mm | - | - | - |
| 1777797955 | 6.67° C | 57% | 1014.1 hPa | 0 mm | - | - | - |
| 1777796453 | 6.67° C | 56% | 1014.2 hPa | 0 mm | - | - | - |
| 1777794655 | 7.22° C | 54% | 1014.4 hPa | 0 mm | - | - | - |
| 1777794361 | 7.22° C | 53% | 1014.3 hPa | 0 mm | - | - | - |
| 1777793458 | 7.22° C | 52% | 1014.4 hPa | 0 mm | - | - | - |
| 1777792562 | 7.78° C | 52% | 1014.5 hPa | 0 mm | - | - | - |
| 1777789880 | 7.78° C | 49% | 1015 hPa | 0 mm | - | - | - |
| 1777788656 | 7.22° C | 51% | 1015.1 hPa | 0 mm | - | - | - |
| 1777787756 | 7.22° C | 52% | 1015.2 hPa | 0 mm | - | - | - |
* Rain latest hour (hover to see other rain measurements)
** Current wind speed in m/s (hover to see current wind gust speed)